[Iaude] MPEC J76: 2024 JS1 [a=1.40,e=0.31,i=1.5,H=25.3]
    mpec at cfa.harvard.edu 
    mpec at cfa.harvard.edu
       
    Sun May  5 05:05:09 EDT 2024
    
    
  
M.P.E.C. 2024-J76                                   Issued 2024 May 5, 09:03 UT
     The Minor Planet Electronic Circulars contain information on unusual
         minor planets, routine data on comets and natural satellites,
         and occasional editorial announcements.  They are published
    on behalf of Division F of the International Astronomical Union by the
          Minor Planet Center, Smithsonian Astrophysical Observatory,
                          Cambridge, MA 02138, U.S.A.
			  
             Prepared using the Tamkin Foundation Computer Network
                              MPC at CFA.HARVARD.EDU
            URL https://www.minorplanetcenter.net/    ISSN 1523-6714
                                    2024 JS1                                    
Observations:
     K24J01S*1C2024 05 03.21085010 30 20.102+09 19 43.18         20.79GVEJ076G96
     K24J01S 1C2024 05 03.21600410 30 25.607+09 19 19.96         20.95GVEJ076G96
     K24J01S 1C2024 05 03.22116510 30 31.136+09 18 56.99         20.70GVEJ076G96
     K24J01S 1C2024 05 03.22632110 30 36.536+09 18 34.06         21.32GVEJ076G96
     K24J01S KC2024 05 03.28418710 31 38.395+09 14 13.02         20.84GVEJ076I52
     K24J01S KC2024 05 03.28570110 31 40.040+09 14 06.14         21.02GVEJ076I52
     K24J01S KC2024 05 03.28721910 31 41.700+09 13 59.41         20.73GVEJ076I52
     K24J01S KC2024 05 03.28873510 31 43.302+09 13 52.39         21.22GVEJ076I52
     K24J01S KC2024 05 03.30816610 32 04.297+09 12 24.08         20.61GVEJ076I52
     K24J01S KC2024 05 03.30968310 32 05.960+09 12 17.64         20.89GVEJ076I52
     K24J01S KC2024 05 03.31120510 32 07.609+09 12 10.44         20.63GVEJ076I52
     K24J01S KC2024 05 03.31272910 32 09.262+09 12 03.56         21.39GVEJ076I52
     K24J01S KC2024 05 04.11241810 47 03.27 +08 11 59.4          21.0 GVEJ076H21
     K24J01S KC2024 05 04.12103310 47 12.29 +08 11 20.3          21.2 GVEJ076H21
     K24J01S KC2024 05 04.13265710 47 28.086+08 10 45.59         20.39GVEJ076I52
     K24J01S KC2024 05 04.13404310 47 29.512+08 10 39.86         21.16GVEJ076I52
     K24J01S KC2024 05 04.13542510 47 30.966+08 10 33.67         20.62GVEJ076I52
     K24J01S KC2024 05 04.13680510 47 32.402+08 10 27.59         20.76GVEJ076I52
     K24J01S 1C2024 05 04.85155 11 00 33.57 +07 14 37.0          21.6 VXEJ076033
     K24J01S 1C2024 05 04.85262 11 00 34.69 +07 14 31.9          21.2 VXEJ076033
     K24J01S 1C2024 05 04.85369 11 00 35.80 +07 14 26.9          21.0 VXEJ076033
     K24J01S 1C2024 05 04.85476 11 00 36.94 +07 14 22.0          21.3 VXEJ076033
Observer details:
033 Karl Schwarzschild Observatory, Tautenburg.  Observers S. Melnikov, C.
    Hogner, F. Ludwig, M. Hartmann, B. Stecklum.  Measurer B. Stecklum.
    1.34-m f/3 Schmidt + CCD.
G96 Mt. Lemmon Survey.  Observer H. Groeller.  Measurers T. Beuden, V. F.
    Carvajal, D. Fay, J. B. Fazekas, D. C. Fuls, A. R. Gibbs, A. D. Grauer, H.
    Groeller, J. K. Hogan, R. A. Kowalski, S. M. Larson, G. J. Leonard, D.
    Rankin, R. L. Seaman, F. C. Shelly, K. W. Wierzchos.  1.5-m reflector +
    10K CCD.
H21 Astronomical Research Observatory, Westfield.  Observer R. Holmes.
    Measurers T. Linder, R. Holmes, L. Horn.  0.81-m f/4.0 astrograph + CCD.
I52 Steward Observatory, Mt. Lemmon Station.  Observer V. F. Carvajal.
    Measurers T. Beuden, V. F. Carvajal, D. Fay, J. B. Fazekas, D. C. Fuls, A.
    R. Gibbs, A. D. Grauer, H. Groeller, J. K. Hogan, R. A. Kowalski, S. M.
    Larson, G. J. Leonard, D. Rankin, R. L. Seaman, F. C. Shelly, K. W.
    Wierzchos.  1.0-m prime focus + CCD.
Orbital elements:
2024 JS1                                                 Earth MOID = 0.0038 AU
Epoch 2024 Mar. 31.0 TT = JDT 2460400.5                 Veres                   
M   2.33581              (2000.0)            P               Q                  
n   0.59255134     Peri.  317.64434     -0.99922018     -0.03583663             
a   1.4038436      Node   220.31093     +0.03944753     -0.92425997             
e   0.3128613      Incl.    1.46825     -0.00171303     -0.38007795             
P   1.66           H   25.38          G   0.15           U   8                  
Residuals in seconds of arc
240503 G96  0.3-  0.0     240503 I52  0.7-  0.3-    240504 I52  0.0   0.0
240503 G96  0.3+  0.2-    240503 I52  0.4-  0.2+    240504 I52  0.1-  0.3+
240503 G96  1.2+  0.1-    240503 I52  0.5-  0.1-    240504 033  0.2-  0.3-
240503 G96  0.1+  0.1+    240503 I52  0.6-  0.0     240504 033  0.1-  0.4-
240503 I52  0.3-  0.1-    240504 H21  0.2+  0.1-    240504 033  0.2-  0.3-
240503 I52  0.1-  0.2-    240504 H21  0.0   0.4+    240504 033  0.1+  0.2-
240503 I52  0.3+  0.0     240504 I52  0.0   0.7-
240503 I52  0.2-  0.2-    240504 I52  0.3-  0.1-
Ephemeris:
2024 JS1                 a,e,i = 1.40, 0.31, 1                   q = 0.9646
Date    TT    R. A. (2000) Decl.     Delta      r    Elong.  Phase     V
2024 04 05    05 46 04.9 +17 12 35   0.1213  0.9686    71.4   101.8    24.4
...
2024 04 20    07 16 23.4 +17 15 26   0.07300 0.9923    78.2    97.6    23.2
...
2024 04 28    08 57 42.2 +14 25 45   0.05452 1.0128    94.9    82.1    22.0
...
2024 05 04    10 45 00.2 +08 22 06   0.05043 1.0313   115.8    61.6    21.2
2024 05 05    11 03 15.9 +07 05 08   0.05089 1.0346   119.5    58.0    21.1
2024 05 06    11 21 03.8 +05 46 58   0.05169 1.0380   123.1    54.5    21.0
...
2024 05 12    12 50 57.2 -01 17 30   0.06268 1.0594   140.6    37.2    21.0
...
2024 05 20    14 03 51.2 -07 05 28   0.08874 1.0908   151.7    26.1    21.5
...
2024 06 04    15 07 02.1 -11 53 55   0.1558  1.1562   153.6    23.0    22.8
M. P. C. Staff               (C) Copyright 2024 MPC           M.P.E.C. 2024-J76
    
    
More information about the Iaude
mailing list